Airfield :
LOGIN :

Register | Disclaimer

   EN    FR    IT 

 










Legend :    VFR   Marginal VFR   IFR   Intensive IFR   Very Intensive IFR
Visi :
Ceiling :
>= 8 km
>= 3000ft
5 to 8 km
1000 to 3000 ft
1500m to 5 km
500 to 1000 ft
800 to 1500m
200 to 500 ft
< 800m
< 200 ft
Symbols :   Thunderstorms  Fog  Heavy snow  Heavy precipitations  Wind > 20 kt
SIGMETs :     Misc.  Thunderstorms  Icing  Turbulence  Mountain Waves  Volcanic Ashes







- Airport Elevation : 36 ft
- IATA code : LTQ
- Download approach charts


LFAT - Le Touquet

CURRENT METAR :
  • 210300Z AUTO 29005KT 260V320 9999 SCT040 BKN047 17/12 Q1018

EXPIRED METARs :
  • 210230Z AUTO 30005KT 260V330 9999 SCT044 17/13 Q1018
  • 210200Z AUTO 29006KT 260V340 9999 BKN046 17/14 Q1018
  • 210130Z AUTO 28006KT 250V320 9999 BKN048 17/15 Q1017
  • 210100Z AUTO 27007KT 230V320 9999 FEW009 SCT044 BKN050 17/16 Q1017
  • 210030Z AUTO 26007KT 230V300 9999 SCT010 BKN042 OVC049 17/15 Q1017

Expired Forecast.
ATIS : +33 3 21 06 62 84
No reported NOTAMs for that airfield.



MET'MAP, your aeronautical weather chart ! - Copyright ORBIFLY December 2007 - Disclaimer

ORBIFLY MET'MAP TEAM :

Programming & Development : Alexandra Zaïnal
Concept & Development : Baudouin d'Aumeries
Co-Development & Prog : Marc-Olivier Méhu
Technical & hardware support : Manuel Goepfert

Contact : metmap@orbifly.com




SOURCES & CREDITS :

   NOAA